Time,TemperatureF,DewpointF,PressureIn,WindDirection,WindDirectionDegrees,WindSpeedMPH,WindSpeedGustMPH,Humidity,HourlyPrecipIn,Conditions,Clouds,dailyrainin,SolarRadiationWatts/m^2,SoftwareType,DateUTC
2013-05-18 00:01:00,41.0,39.0,30.00,NNW,328,0.0,2.0,92,-99.99,,,-99.99,0.000000,,2013-05-18 07:01:00,
2013-05-18 00:10:00,43.0,40.0,30.01,South,191,4.0,5.0,92,-99.99,,,-99.99,0.000000,,2013-05-18 07:10:00,
2013-05-18 00:52:00,43.0,40.0,30.01,South,191,4.0,5.0,92,-99.99,,,-99.99,0.000000,,2013-05-18 07:52:00,
2013-05-18 01:01:00,43.0,40.0,30.01,South,191,4.0,5.0,92,-99.99,,,-99.99,0.000000,,2013-05-18 08:01:00,
2013-05-18 01:10:00,37.0,36.0,30.01,WNW,282,4.0,5.0,95,-99.99,,,-99.99,0.000000,,2013-05-18 08:10:00,
2013-05-18 01:52:00,37.0,36.0,30.01,WNW,282,4.0,5.0,95,-99.99,,,-99.99,0.000000,,2013-05-18 08:52:00,
2013-05-18 02:02:00,37.0,36.0,30.01,WNW,282,4.0,5.0,95,-99.99,,,-99.99,0.000000,,2013-05-18 09:02:00,
2013-05-18 02:10:00,38.0,36.0,30.00,ESE,118,1.0,4.0,94,-99.99,,,-99.99,0.000000,,2013-05-18 09:10:00,
2013-05-18 02:53:00,38.0,36.0,30.00,ESE,118,1.0,4.0,94,-99.99,,,-99.99,0.000000,,2013-05-18 09:53:00,
2013-05-18 03:02:00,38.0,36.0,30.00,ESE,118,1.0,4.0,94,-99.99,,,-99.99,0.000000,,2013-05-18 10:02:00,
2013-05-18 03:10:00,36.0,35.0,30.01,NW,308,4.0,5.0,94,-99.99,,,-99.99,0.000000,,2013-05-18 10:10:00,
2013-05-18 03:52:00,36.0,35.0,30.01,NW,308,4.0,5.0,94,-99.99,,,-99.99,0.000000,,2013-05-18 10:52:00,
2013-05-18 04:02:00,36.0,35.0,30.01,NW,308,4.0,5.0,94,-99.99,,,-99.99,0.000000,,2013-05-18 11:02:00,
2013-05-18 04:10:00,38.0,36.0,30.01,North,350,4.0,5.0,93,-99.99,,,-99.99,0.000000,,2013-05-18 11:10:00,
2013-05-18 04:52:00,38.0,36.0,30.01,North,350,4.0,5.0,93,-99.99,,,-99.99,0.000000,,2013-05-18 11:52:00,
2013-05-18 05:01:00,38.0,36.0,30.01,North,350,4.0,5.0,93,-99.99,,,-99.99,0.000000,,2013-05-18 12:01:00,
2013-05-18 05:10:00,36.0,35.0,30.02,WSW,257,2.0,4.0,96,-99.99,,,-99.99,0.000000,,2013-05-18 12:10:00,
2013-05-18 05:52:00,36.0,35.0,30.02,WSW,257,2.0,4.0,96,-99.99,,,-99.99,0.000000,,2013-05-18 12:52:00,
2013-05-18 06:01:00,36.0,35.0,30.02,WSW,257,2.0,4.0,96,-99.99,,,-99.99,0.000000,,2013-05-18 13:01:00,
2013-05-18 06:10:00,37.0,36.0,30.04,NW,326,0.0,1.0,95,-99.99,,,-99.99,110.000000,,2013-05-18 13:10:00,
2013-05-18 06:52:00,37.0,36.0,30.04,NW,326,0.0,1.0,95,-99.99,,,-99.99,110.000000,,2013-05-18 13:52:00,
2013-05-18 07:03:00,37.0,36.0,30.04,NW,326,0.0,1.0,95,-99.99,,,-99.99,110.000000,,2013-05-18 14:03:00,
2013-05-18 07:10:00,43.0,40.0,30.06,NNE,28,3.0,5.0,88,-99.99,,,-99.99,350.000000,,2013-05-18 14:10:00,
2013-05-18 07:54:00,43.0,40.0,30.06,NNE,28,3.0,5.0,88,-99.99,,,-99.99,350.000000,,2013-05-18 14:54:00,
2013-05-18 08:03:00,43.0,40.0,30.06,NNE,28,3.0,5.0,88,-99.99,,,-99.99,350.000000,,2013-05-18 15:03:00,
2013-05-18 08:10:00,46.0,41.0,30.08,SE,127,1.0,2.0,83,-99.99,,,-99.99,270.000000,,2013-05-18 15:10:00,
2013-05-18 08:53:00,46.0,41.0,30.08,SE,127,1.0,2.0,83,-99.99,,,-99.99,270.000000,,2013-05-18 15:53:00,
2013-05-18 09:02:00,46.0,41.0,30.08,SE,127,1.0,2.0,83,-99.99,,,-99.99,270.000000,,2013-05-18 16:02:00,
2013-05-18 09:10:00,50.0,42.0,30.08,East,87,3.0,5.0,73,-99.99,,,-99.99,830.000000,,2013-05-18 16:10:00,
2013-05-18 09:52:00,50.0,42.0,30.08,East,87,3.0,5.0,73,-99.99,,,-99.99,830.000000,,2013-05-18 16:52:00,
2013-05-18 10:02:00,50.0,42.0,30.08,East,87,3.0,5.0,73,-99.99,,,-99.99,830.000000,,2013-05-18 17:02:00,
2013-05-18 10:10:00,55.0,40.0,30.08,ENE,61,5.0,9.0,57,-99.99,,,-99.99,560.000000,,2013-05-18 17:10:00,
2013-05-18 10:51:00,55.0,40.0,30.08,ENE,61,5.0,9.0,57,-99.99,,,-99.99,560.000000,,2013-05-18 17:51:00,
2013-05-18 11:01:00,55.0,40.0,30.08,ENE,61,5.0,9.0,57,-99.99,,,-99.99,560.000000,,2013-05-18 18:01:00,
2013-05-18 11:10:00,58.0,31.0,30.07,NW,326,6.0,11.0,37,-99.99,,,-99.99,580.000000,,2013-05-18 18:10:00,
2013-05-18 11:52:00,58.0,31.0,30.07,NW,326,6.0,11.0,37,-99.99,,,-99.99,580.000000,,2013-05-18 18:52:00,
2013-05-18 12:02:00,58.0,31.0,30.07,NW,326,6.0,11.0,37,-99.99,,,-99.99,580.000000,,2013-05-18 19:02:00,
2013-05-18 12:10:00,60.0,33.0,30.06,West,269,8.0,15.0,36,-99.99,,,-99.99,1170.000000,,2013-05-18 19:10:00,
2013-05-18 12:52:00,60.0,33.0,30.06,West,269,8.0,15.0,36,-99.99,,,-99.99,1170.000000,,2013-05-18 19:52:00,
2013-05-18 13:01:00,60.0,33.0,30.06,West,269,8.0,15.0,36,-99.99,,,-99.99,1170.000000,,2013-05-18 20:01:00,
2013-05-18 13:10:00,59.0,34.0,30.05,WNW,300,11.0,19.0,39,-99.99,,,-99.99,570.000000,,2013-05-18 20:10:00,
2013-05-18 13:52:00,59.0,34.0,30.05,WNW,300,11.0,19.0,39,-99.99,,,-99.99,570.000000,,2013-05-18 20:52:00,
2013-05-18 14:01:00,59.0,34.0,30.05,WNW,300,11.0,19.0,39,-99.99,,,-99.99,570.000000,,2013-05-18 21:01:00,
2013-05-18 14:10:00,60.0,31.0,30.04,South,188,3.0,7.0,33,-99.99,,,-99.99,350.000000,,2013-05-18 21:10:00,
2013-05-18 14:53:00,60.0,31.0,30.04,South,188,3.0,7.0,33,-99.99,,,-99.99,350.000000,,2013-05-18 21:53:00,
2013-05-18 15:03:00,60.0,31.0,30.04,South,188,3.0,7.0,33,-99.99,,,-99.99,350.000000,,2013-05-18 22:03:00,
2013-05-18 15:10:00,61.0,29.0,30.03,West,264,5.0,13.0,30,-99.99,,,-99.99,320.000000,,2013-05-18 22:10:00,
2013-05-18 15:52:00,61.0,29.0,30.03,West,264,5.0,13.0,30,-99.99,,,-99.99,320.000000,,2013-05-18 22:52:00,
2013-05-18 16:01:00,61.0,29.0,30.03,West,264,5.0,13.0,30,-99.99,,,-99.99,320.000000,,2013-05-18 23:01:00,
2013-05-18 16:10:00,61.0,36.0,30.03,North,9,12.0,18.0,39,-99.99,,,-99.99,860.000000,,2013-05-18 23:10:00,
2013-05-18 16:52:00,61.0,36.0,30.03,North,9,12.0,18.0,39,-99.99,,,-99.99,860.000000,,2013-05-18 23:52:00,
2013-05-18 17:01:00,61.0,36.0,30.03,North,9,12.0,18.0,39,-99.99,,,-99.99,860.000000,,2013-05-19 00:01:00,
2013-05-18 17:10:00,62.0,32.0,30.02,NNE,30,7.0,12.0,33,-99.99,,,-99.99,520.000000,,2013-05-19 00:10:00,
2013-05-18 17:51:00,62.0,32.0,30.02,NNE,30,7.0,12.0,33,-99.99,,,-99.99,520.000000,,2013-05-19 00:51:00,
2013-05-18 18:01:00,62.0,32.0,30.02,NNE,30,7.0,12.0,33,-99.99,,,-99.99,520.000000,,2013-05-19 01:01:00,
2013-05-18 18:10:00,61.0,29.0,30.01,NNW,328,8.0,17.0,30,-99.99,,,-99.99,170.000000,,2013-05-19 01:10:00,
2013-05-18 18:52:00,61.0,29.0,30.01,NNW,328,8.0,17.0,30,-99.99,,,-99.99,170.000000,,2013-05-19 01:52:00,
2013-05-18 19:01:00,61.0,29.0,30.01,NNW,328,8.0,17.0,30,-99.99,,,-99.99,170.000000,,2013-05-19 02:01:00,
2013-05-18 19:10:00,55.0,35.0,30.04,NW,314,4.0,5.0,48,-99.99,,,-99.99,30.000000,,2013-05-19 02:10:00,
2013-05-18 19:52:00,55.0,35.0,30.04,NW,314,4.0,5.0,48,-99.99,,,-99.99,30.000000,,2013-05-19 02:52:00,
2013-05-18 20:01:00,55.0,35.0,30.04,NW,314,4.0,5.0,48,-99.99,,,-99.99,30.000000,,2013-05-19 03:01:00,
2013-05-18 20:10:00,52.0,33.0,30.05,NW,324,5.0,9.0,49,-99.99,,,-99.99,0.000000,,2013-05-19 03:10:00,
2013-05-18 20:53:00,52.0,33.0,30.05,NW,324,5.0,9.0,49,-99.99,,,-99.99,0.000000,,2013-05-19 03:53:00,
2013-05-18 21:02:00,52.0,33.0,30.05,NW,324,5.0,9.0,49,-99.99,,,-99.99,0.000000,,2013-05-19 04:02:00,
2013-05-18 21:10:00,47.0,32.0,30.06,NNE,23,4.0,7.0,57,-99.99,,,-99.99,0.000000,,2013-05-19 04:10:00,
2013-05-18 21:52:00,47.0,32.0,30.06,NNE,23,4.0,7.0,57,-99.99,,,-99.99,0.000000,,2013-05-19 04:52:00,
2013-05-18 22:02:00,47.0,32.0,30.06,NNE,23,4.0,7.0,57,-99.99,,,-99.99,0.000000,,2013-05-19 05:02:00,
2013-05-18 22:10:00,49.0,32.0,30.06,WNW,291,5.0,9.0,53,-99.99,,,-99.99,0.000000,,2013-05-19 05:10:00,
2013-05-18 22:51:00,49.0,32.0,30.06,WNW,291,5.0,9.0,53,-99.99,,,-99.99,0.000000,,2013-05-19 05:51:00,
2013-05-18 23:02:00,49.0,32.0,30.06,WNW,291,5.0,9.0,53,-99.99,,,-99.99,0.000000,,2013-05-19 06:02:00,
2013-05-18 23:10:00,44.0,32.0,30.06,NNE,33,3.0,6.0,63,-99.99,,,-99.99,0.000000,,2013-05-19 06:10:00,
2013-05-18 23:51:00,44.0,32.0,30.06,NNE,33,3.0,6.0,63,-99.99,,,-99.99,0.000000,,2013-05-19 06:51:00,